"2022-09-25",00:01,8.26,8.122,8.19,8.13,5.821,8.1,96.2,-8.321,-9.139,298.7,342.,-42.5,-1.734,-1.443,283.1,0,7999.,0.,100000,101.5258,0.2,0.2,2.277,2.68,328.4,1.017,1.22,310.733,0.6,12.524,14.267,14.666,-999,15.484,14.241,11.363,-999.,-999.,15.645,-3.715,-4.227,-8.089,-23.259,0.202,0.278,0.276,0.749,0.177,0.222,0.277,0.75,0.514,,100.,0.,0.,0.,293.4,73.76,73.76
"2022-09-25",00:02,8.191,8.033,8.12,8.05,5.913,8.01,96.3,-8.321,-9.16,298.9,342.4,-42.7,-1.734,-1.377,283.3,0,7999.,0.,100000,101.5274,0.2,0.2,2.403,2.59,328.6,1.043,1.24,316.333,0.6,12.524,14.264,14.666,-999,15.487,14.238,11.343,-999.,-999.,15.641,-3.736,-4.244,-8.119,-23.328,0.202,0.278,0.276,0.748,0.177,0.223,0.278,0.751,0.514,,100.,0.,0.,0.,293.4,73.76,73.76
"2022-09-25",00:03,8.123,7.974,8.08,7.999,6.086,7.953,96.3,-8.321,-9.245,299.,342.9,-43.0,-1.734,-1.19,283.4,0,7999.,0.,100000,101.5301,0.2,0.2,2.652,2.99,329.134,1.245,1.63,317.667,0.6,12.498,14.267,14.663,-999,15.494,14.241,11.333,-999.,-999.,15.645,-3.761,-4.261,-8.151,-23.399,0.202,0.278,0.276,0.748,0.177,0.222,0.277,0.75,0.514,,100.,0.,0.,0.,293.4,73.76,73.76
"2022-09-25",00:04,8.057,7.925,8.01,7.944,6.22,7.887,96.4,-8.321,-9.298,299.2,343.6,-43.4,-1.734,-1.626,283.4,0,7999.,0.,100000,101.5313,0.2,0.2,2.827,3.12,329.8,1.46,1.85,318.199,0.6,12.465,14.264,14.666,-999,15.497,14.238,11.327,-999.,-999.,15.641,-3.783,-4.276,-8.185,-23.465,0.202,0.277,0.276,0.748,0.177,0.223,0.277,0.75,0.513,,100.,0.,0.,0.,293.4,73.76,73.76
"2022-09-25",00:05,7.998,7.872,7.978,7.89,6.299,7.8,96.4,-8.256,-9.373,299.1,344.9,-44.7,-1.734,-1.065,283.3,0,7999.,0.,100000,101.5324,0.2,0.2,2.868,3.,328.8,1.384,1.62,318.399,0.6,12.449,14.267,14.677,-999,15.491,14.251,11.307,-999.,-999.,15.645,-3.806,-4.294,-8.218,-23.532,0.202,0.277,0.276,0.749,0.177,0.223,0.277,0.751,0.514,,100.,0.,0.,0.,293.4,73.76,73.76
"2022-09-25",00:06,7.991,7.869,8.02,7.913,6.443,7.8,96.9,-8.192,-9.373,299.,345.6,-45.4,-1.734,-1.191,283.3,0,7999.,0.,100000,101.5345,0.2,0.2,2.977,3.55,328.265,1.147,1.38,321.199,0.6,12.445,14.264,14.67,-999,15.487,14.245,11.328,-999.,-999.,15.645,-3.83,-4.31,-8.252,-23.601,0.202,0.278,0.276,0.749,0.177,0.222,0.277,0.75,0.513,,100.,0.,0.,0.,293.4,73.76,73.76
"2022-09-25",00:07,8.05,7.955,8.07,7.98,6.544,7.827,97.2,-8.063,-9.373,298.8,346.4,-46.3,-1.734,-1.317,283.4,0,7999.,0.,100000,101.5337,0.2,0.2,2.974,3.59,329.004,1.404,1.64,324.267,0.6,12.445,14.264,14.684,-999,15.481,14.242,11.309,-999.,-999.,15.645,-3.853,-4.328,-8.287,-23.67,0.202,0.277,0.276,0.748,0.177,0.222,0.277,0.75,0.513,,100.,0.,0.,0.,293.4,73.76,73.76
"2022-09-25",00:08,8.152,8.103,8.26,8.16,6.685,7.973,97.6,-7.956,-9.267,298.5,346.6,-46.8,-1.686,-1.38,283.1,0,7999.,0.,100000,101.5353,0.2,0.2,2.818,3.19,328.265,1.377,1.78,318.47,0.6,12.445,14.271,14.684,-999,15.481,14.235,11.303,-999.,-999.,15.648,-3.877,-4.345,-8.324,-23.738,0.202,0.277,0.276,0.748,0.177,0.222,0.277,0.75,0.513,,100.,0.,0.,0.,293.4,73.76,73.76
"2022-09-25",00:09,8.293,8.247,8.4,8.29,6.787,8.14,98.2,-7.816,-9.118,298.4,346.9,-47.2,-1.686,-1.814,283.,0,7999.,0.,100000,101.5339,0.2,0.2,2.702,3.31,329.461,1.208,1.39,315.998,0.6,12.423,14.265,14.684,-999,15.481,14.229,11.309,-999.,-999.,15.655,-3.9,-4.361,-8.36,-23.806,0.202,0.278,0.276,0.749,0.177,0.223,0.277,0.75,0.513,,100.,0.,0.,0.,293.4,73.76,73.76
"2022-09-25",00:10,8.339,8.267,8.43,8.33,6.845,8.2,98.5,-7.697,-8.969,298.2,346.8,-47.3,-1.445,-1.752,282.9,0,7999.,0.,100000,101.537,0.2,0.2,2.645,3.02,328.332,1.309,1.82,322.866,0.6,12.396,14.268,14.687,-999,15.468,14.229,11.293,-999.,-999.,15.652,-3.923,-4.377,-8.397,-23.872,0.202,0.277,0.276,0.748,0.177,0.223,0.277,0.75,0.513,,100.,0.,0.,0.,293.4,73.76,73.76
"2022-09-25",00:11,8.362,8.283,8.45,8.35,6.855,8.2,98.7,-7.633,-8.82,298.1,347.3,-48.0,-1.638,-1.813,282.9,0,7999.,0.,100000,101.537,0.2,0.2,2.679,3.23,328.265,1.231,1.64,323.331,0.6,12.373,14.256,14.684,-999,15.471,14.219,11.277,-999.,-999.,15.652,-3.946,-4.394,-8.435,-23.938,0.202,0.277,0.276,0.748,0.177,0.222,0.277,0.75,0.514,,100.,0.,0.,0.,293.4,73.76,73.76
"2022-09-25",00:12,8.415,8.345,8.45,8.36,6.862,8.22,98.4,-7.547,-8.735,297.3,347.,-48.5,-1.445,-1.81,282.5,0,7999.,0.,100000,101.5389,0.2,0.2,2.709,2.95,329.532,1.463,1.7,322.2,0.6,12.367,14.245,14.684,-999,15.472,14.229,11.264,-999.,-999.,15.652,-3.971,-4.41,-8.47,-24.008,0.202,0.277,0.276,0.748,0.177,0.223,0.277,0.75,0.513,,100.,0.,0.,0.,293.4,73.77,73.76
"2022-09-25",00:13,8.447,8.375,8.58,8.47,6.816,8.35,98.1,-7.515,-8.618,297.5,346.5,-47.9,-1.445,-1.81,282.5,0,7999.,0.,100000,101.5394,0.2,0.2,2.576,2.96,328.599,1.314,1.53,318.87,0.6,12.373,14.239,14.68,-999,15.472,14.219,11.238,-999.,-999.,15.656,-3.994,-4.427,-8.509,-24.075,0.202,0.277,0.275,0.748,0.177,0.222,0.277,0.75,0.513,,100.,0.,0.,0.,293.4,73.76,73.76
"2022-09-25",00:14,8.454,8.411,8.6,8.51,6.842,8.4,97.7,-7.482,-8.565,297.5,346.3,-47.7,-1.59,-1.683,282.3,0,7999.,0.,100000,101.5373,0.2,0.2,2.618,2.93,330.998,1.343,1.53,319.6,0.6,12.35,14.239,14.68,-999,15.482,14.219,11.238,-999.,-999.,15.649,-4.018,-4.443,-8.548,-24.144,0.202,0.277,0.276,0.748,0.177,0.222,0.277,0.75,0.513,,100.,0.,0.,0.,293.4,73.76,73.76
"2022-09-25",00:15,8.444,8.368,8.51,8.47,6.764,8.34,97.4,-7.439,-8.523,297.3,346.4,-48.0,-1.686,-1.744,282.2,0,7999.,0.,100000,101.5375,0.2,0.2,2.697,3.26,331.745,1.355,1.56,318.934,0.6,12.347,14.219,14.677,-999,15.479,14.222,11.231,-999.,-999.,15.639,-4.043,-4.461,-8.586,-24.211,0.202,0.277,0.276,0.749,0.177,0.222,0.277,0.75,0.513,,100.,0.,0.,0.,293.4,73.76,73.76
"2022-09-25",00:16,8.401,8.345,8.48,8.44,6.783,8.3,97.3,-7.407,-8.502,297.3,346.6,-48.2,-1.734,-1.557,282.,0,7999.,0.,100000,101.5388,0.2,0.2,2.597,3.07,330.532,1.389,1.55,322.135,0.6,12.328,14.206,14.667,-999,15.493,14.219,11.201,-999.,-999.,15.636,-4.066,-4.476,-8.625,-24.275,0.202,0.277,0.276,0.749,0.177,0.222,0.277,0.75,0.513,,100.,0.,0.,0.,293.4,73.76,73.76
"2022-09-25",00:17,8.365,8.309,8.45,8.39,6.757,8.3,97.2,-7.418,-8.501,297.,346.7,-48.6,-1.734,-1.493,281.9,0,7999.,0.,100000,101.5413,0.2,0.2,2.685,3.04,329.717,1.405,1.67,316.132,0.6,12.301,14.216,14.684,-999,15.496,14.226,11.179,-999.,-999.,15.626,-4.09,-4.496,-8.661,-24.342,0.202,0.277,0.276,0.748,0.177,0.222,0.277,0.75,0.513,,100.,0.,0.,0.,293.4,73.76,73.76
"2022-09-25",00:18,8.329,8.257,8.39,8.34,6.767,8.25,97.,-7.418,-8.512,297.1,346.6,-48.4,-1.686,-1.866,281.9,0,7999.,0.,100000,101.5398,0.2,0.2,2.767,3.49,326.333,1.473,1.8,315.062,0.6,12.305,14.206,14.674,-999,15.5,14.226,11.169,-999.,-999.,15.626,-4.113,-4.51,-8.702,-24.408,0.202,0.277,0.276,0.748,0.177,0.222,0.277,0.75,0.513,,100.,0.,0.,0.,293.4,73.77,73.76
"2022-09-25",00:19,8.313,8.263,8.35,8.31,6.787,8.2,96.9,-7.418,-8.491,297.2,347.1,-48.8,-1.686,-0.993,282.,0,7999.,0.,100000,101.5394,0.2,0.2,2.907,3.34,324.868,1.403,1.92,313.134,0.6,12.305,14.209,14.698,-999,15.514,14.222,11.162,-999.,-999.,15.626,-4.136,-4.528,-8.74,-24.472,0.202,0.277,0.276,0.75,0.177,0.222,0.277,0.75,0.513,,100.,0.,0.,0.,293.4,73.76,73.76
"2022-09-25",00:20,8.287,8.204,8.37,8.32,6.725,8.2,96.9,-7.354,-8.48,297.3,347.5,-49.1,-1.734,-1.242,282.,0,7999.,0.,100000,101.5409,0.2,0.2,2.747,3.27,326.068,1.439,1.79,313.667,0.6,12.302,14.209,14.682,-999,15.51,14.233,11.149,-999.,-999.,15.613,-4.162,-4.545,-8.779,-24.534,0.202,0.277,0.275,0.749,0.177,0.222,0.277,0.75,0.513,,100.,0.,0.,0.,293.4,73.76,73.76
"2022-09-25",00:21,8.283,8.201,8.35,8.32,6.764,8.2,97.,-7.3,-8.48,297.1,347.8,-49.5,-1.734,-1.241,281.9,0,7999.,0.,100000,101.542,0.2,0.2,2.792,3.41,328.933,1.548,1.83,317.733,0.6,12.292,14.209,14.685,-999,15.517,14.24,11.129,-999.,-999.,15.613,-4.186,-4.562,-8.816,-24.592,0.202,0.277,0.276,0.748,0.177,0.222,0.277,0.75,0.513,,100.,0.,0.,0.,293.4,73.77,73.76
"2022-09-25",00:22,8.235,8.162,8.3,8.25,6.673,8.2,97.,-7.289,-8.47,297.1,347.7,-49.4,-1.638,-1.302,281.9,0,7999.,0.,100000,101.5423,0.2,0.2,2.967,3.58,327.734,1.541,1.85,317.072,0.6,12.269,14.213,14.679,-999,15.517,14.237,11.12,-999.,-999.,15.603,-4.209,-4.579,-8.856,-24.652,0.202,0.277,0.276,0.748,0.177,0.222,0.277,0.75,0.513,,100.,0.,0.,0.,293.4,73.76,73.76
"2022-09-25",00:23,8.29,8.204,8.29,8.23,6.63,8.17,97.2,-7.3,-8.47,297.2,347.5,-49.1,-1.541,-1.925,282.2,0,7999.,0.,100000,101.5416,0.2,0.2,2.649,3.05,330.532,1.354,1.66,318.936,0.6,12.259,14.234,14.676,-999,15.517,14.24,11.11,-999.,-999.,15.617,-4.235,-4.596,-8.895,-24.713,0.202,0.277,0.276,0.748,0.177,0.222,0.277,0.75,0.513,,100.,0.,0.,0.,293.4,73.76,73.76
"2022-09-25",00:24,8.271,8.191,8.29,8.23,6.673,8.15,97.2,-7.289,-8.48,296.9,347.4,-49.3,-1.59,-1.799,282.,0,7999.,0.,100000,101.5442,0.2,0.2,2.682,2.89,329.267,1.274,1.55,319.936,0.6,12.233,14.234,14.7,-999,15.517,14.264,11.08,-999.,-999.,15.627,-4.259,-4.613,-8.934,-24.769,0.202,0.277,0.276,0.749,0.177,0.222,0.277,0.75,0.513,,100.,0.,0.,0.,293.4,73.76,73.76
"2022-09-25",00:25,8.255,8.175,8.29,8.24,6.71,8.13,97.5,-7.3,-8.48,297.2,347.4,-49.0,-1.445,-1.425,282.1,0,7999.,0.,100000,101.5417,0.2,0.2,2.565,3.29,332.393,1.36,1.68,321.6,0.6,12.233,14.231,14.703,-999,15.521,14.261,11.084,-999.,-999.,15.624,-4.283,-4.63,-8.971,-24.828,0.202,0.277,0.276,0.749,0.177,0.222,0.277,0.75,0.513,,100.,0.,0.,0.,293.4,73.76,73.76
"2022-09-25",00:26,8.249,8.145,8.27,8.22,6.729,8.1,97.4,-7.289,-8.438,296.9,347.1,-49.1,-1.59,-1.114,282.3,0,7999.,0.,100000,101.5468,0.2,0.2,2.729,3.22,329.999,1.382,1.65,318.535,0.6,12.233,14.237,14.703,-999,15.517,14.275,11.08,-999.,-999.,15.632,-4.307,-4.646,-9.011,-24.884,0.202,0.278,0.276,0.748,0.177,0.222,0.277,0.75,0.513,,100.,0.,0.,0.,293.4,73.76,73.76
"2022-09-25",00:27,8.242,8.145,8.28,8.22,6.775,8.11,97.4,-7.3,-8.374,296.8,346.6,-48.7,-1.734,-1.736,282.2,0,7999.,0.,100000,101.5444,0.2,0.2,2.489,2.98,331.266,1.278,1.62,322.803,0.6,12.23,14.248,14.707,-999,15.517,14.272,11.07,-999.,-999.,15.632,-4.331,-4.667,-9.051,-24.938,0.202,0.277,0.276,0.748,0.177,0.222,0.277,0.75,0.513,,100.,0.,0.,0.,293.4,73.76,73.76
"2022-09-25",00:28,8.243,8.139,8.23,8.19,6.716,8.1,97.3,-7.289,-8.353,297.,346.6,-48.5,-1.734,-1.238,282.4,0,7999.,0.,100000,101.542,0.2,0.2,2.902,3.29,331.,1.425,1.68,321.343,0.6,12.203,14.249,14.697,-999,15.507,14.268,11.051,-999.,-999.,15.642,-4.354,-4.682,-9.088,-24.991,0.202,0.277,0.276,0.748,0.177,0.222,0.277,0.751,0.512,,100.,0.,0.,0.,293.4,73.76,73.76
"2022-09-25",00:29,8.262,8.175,8.31,8.25,6.687,8.15,97.5,-7.246,-8.279,297.,346.8,-48.8,-1.734,-1.113,282.4,0,7999.,0.,100000,101.5474,0.2,0.2,2.776,3.48,331.467,1.368,1.59,322.403,0.6,12.18,14.238,14.694,-999,15.511,14.265,11.008,-999.,-999.,15.645,-4.38,-4.699,-9.125,-25.046,0.202,0.278,0.276,0.749,0.177,0.222,0.277,0.751,0.513,,100.,0.,0.,0.,293.4,73.77,73.76
"2022-09-25",00:30,8.338,8.267,8.45,8.39,6.69,8.27,97.6,-7.149,-8.225,297.2,347.1,-48.8,-1.686,-1.548,282.4,0,7999.,0.,100000,101.5431,0.2,0.2,2.493,2.87,330.461,1.443,1.83,321.199,0.6,12.164,14.245,14.677,-999,15.524,14.262,11.005,-999.,-999.,15.646,-4.404,-4.716,-9.163,-25.098,0.202,0.277,0.276,0.749,0.177,0.222,0.277,0.75,0.513,,100.,0.,0.,0.,293.4,73.76,73.76
"2022-09-25",00:31,8.374,8.3,8.51,8.47,6.68,8.33,97.7,-7.074,-8.204,296.7,346.5,-48.7,-1.493,-1.797,282.2,0,7999.,0.,100000,101.5437,0.2,0.2,2.781,3.22,328.8,1.421,1.58,317.933,0.6,12.151,14.242,14.684,-999,15.511,14.262,11.002,-999.,-999.,15.646,-4.429,-4.733,-9.201,-25.149,0.202,0.277,0.276,0.748,0.177,0.222,0.277,0.75,0.513,,100.,0.,0.,0.,293.4,73.76,73.76
"2022-09-25",00:32,8.351,8.274,8.46,8.43,6.719,8.31,97.6,-7.106,-8.194,296.6,346.1,-48.4,-1.493,-1.672,281.9,0,7780.,0.,100000,101.5427,0.2,0.2,2.594,3.01,327.467,1.333,1.55,319.4,0.6,12.154,14.229,14.671,-999,15.507,14.265,11.008,-999.,-999.,15.646,-4.451,-4.753,-9.239,-25.199,0.202,0.277,0.276,0.748,0.177,0.222,0.277,0.75,0.513,,100.,0.,0.,0.,293.4,73.77,73.76
"2022-09-25",00:33,8.275,8.179,8.35,8.32,6.618,8.24,97.2,-7.128,-8.204,296.4,345.9,-48.4,-1.638,-1.485,281.9,0,7999.,0.,100000,101.5435,0.2,0.2,2.555,3.05,329.131,1.163,1.47,323.537,0.6,12.154,14.226,14.674,-999,15.507,14.262,10.979,-999.,-999.,15.646,-4.472,-4.769,-9.275,-25.25,0.202,0.277,0.276,0.748,0.177,0.222,0.277,0.75,0.512,,100.,0.,0.,0.,293.4,73.76,73.76
"2022-09-25",00:34,8.246,8.173,8.29,8.25,6.693,8.2,96.9,-7.16,-8.225,296.4,346.1,-48.6,-1.638,-1.422,281.9,0,7999.,0.,100000,101.5433,0.2,0.2,2.399,2.67,333.002,1.114,1.33,322.999,0.6,12.148,14.236,14.677,-999,15.497,14.265,10.962,-999.,-999.,15.646,-4.499,-4.787,-9.315,-25.299,0.201,0.277,0.276,0.748,0.177,0.222,0.277,0.75,0.512,,100.,0.,0.,0.,293.4,73.77,73.76
"2022-09-25",00:35,8.193,8.117,8.21,8.19,6.693,8.12,96.7,-7.16,-8.225,296.2,345.6,-48.3,-1.638,-1.671,281.9,0,7999.,0.,100000,101.5428,0.2,0.2,2.512,3.03,332.466,1.168,1.45,325.068,0.6,12.145,14.222,14.671,-999,15.497,14.262,10.959,-999.,-999.,15.646,-4.522,-4.803,-9.351,-25.347,0.202,0.277,0.276,0.749,0.177,0.222,0.277,0.75,0.512,,100.,0.,0.,0.,293.4,73.76,73.76
"2022-09-25",00:36,8.207,8.17,8.23,8.2,6.618,8.1,96.9,-7.182,-8.225,296.4,345.1,-47.7,-1.638,-1.237,281.8,0,7999.,0.,100000,101.5421,0.2,0.2,2.365,2.72,333.,1.051,1.37,328.135,0.6,12.136,14.222,14.671,-999,15.484,14.262,10.93,-999.,-999.,15.646,-4.545,-4.82,-9.39,-25.398,0.202,0.277,0.276,0.748,0.177,0.222,0.277,0.75,0.512,,100.,0.,0.,0.,293.4,73.77,73.76
"2022-09-25",00:37,8.223,8.176,8.25,8.22,6.588,8.1,97.2,-7.203,-8.204,296.3,344.5,-47.2,-1.734,-1.736,281.9,0,7999.,0.,100000,101.5406,0.2,0.2,2.218,2.71,334.933,1.105,1.24,328.065,0.6,12.126,14.219,14.667,-999,15.481,14.258,10.94,-999.,-999.,15.649,-4.569,-4.837,-9.426,-25.442,0.201,0.277,0.276,0.748,0.177,0.222,0.277,0.75,0.512,,100.,0.,0.,0.,293.4,73.77,73.76
"2022-09-25",00:38,8.22,8.173,8.26,8.22,6.549,8.1,97.3,-7.193,-8.215,296.1,343.6,-46.5,-1.686,-1.55,282.,0,7999.,0.,100000,101.5437,0.2,0.2,2.129,2.38,337.402,1.081,1.32,324.262,0.6,12.093,14.209,14.667,-999,15.481,14.255,10.92,-999.,-999.,15.649,-4.594,-4.855,-9.462,-25.489,0.202,0.277,0.276,0.749,0.177,0.222,0.277,0.75,0.512,,100.,0.,0.,0.,293.4,73.76,73.76
"2022-09-25",00:39,8.226,8.176,8.29,8.23,6.438,8.12,97.6,-7.214,-8.173,296.2,343.,-45.8,-1.734,-1.113,282.1,0,7999.,0.,100000,101.5402,0.2,0.2,1.862,2.14,337.465,0.835,1.13,331.402,0.599,12.093,14.193,14.674,-999,15.474,14.255,10.917,-999.,-999.,15.646,-4.616,-4.873,-9.501,-25.533,0.201,0.277,0.276,0.749,0.177,0.222,0.277,0.75,0.512,,100.,0.,0.,0.,293.4,73.76,73.76
"2022-09-25",00:40,8.259,8.226,8.34,8.31,6.343,8.2,98.1,-7.236,-8.183,295.7,341.4,-44.8,-1.734,-1.486,282.2,0,7999.,0.,100000,101.5396,0.2,0.2,1.811,2.1,339.334,0.687,0.99,343.398,0.599,12.093,14.193,14.667,-999,15.485,14.258,10.891,-999.,-999.,15.649,-4.639,-4.892,-9.537,-25.578,0.202,0.277,0.276,0.748,0.177,0.222,0.277,0.75,0.512,,100.,0.,0.,0.,293.4,73.77,73.76
"2022-09-25",00:41,8.252,8.226,8.37,8.34,6.376,8.2,98.3,-7.332,-8.194,295.2,339.8,-43.7,-1.734,-1.362,281.9,0,7999.,0.,100000,101.5434,0.2,0.2,1.492,1.83,340.199,0.532,0.65,353.527,0.599,12.09,14.19,14.671,-999,15.475,14.255,10.881,-999.,-999.,15.646,-4.662,-4.908,-9.574,-25.62,0.202,0.277,0.276,0.748,0.177,0.222,0.277,0.75,0.512,,100.,0.,0.,0.,293.4,73.77,73.76
"2022-09-25",00:42,8.229,8.186,8.24,8.22,6.035,8.16,96.8,-7.483,-8.215,295.5,339.6,-43.4,-1.831,-1.486,281.6,0,7999.,0.,100000,101.537,0.2,0.2,1.443,1.63,343.804,0.325,0.54,29.579,0.599,12.073,14.19,14.667,-999,15.472,14.252,10.871,-999.,-999.,15.646,-4.684,-4.926,-9.609,-25.663,0.201,0.277,0.276,0.749,0.177,0.222,0.277,0.75,0.512,,100.,0.,0.,0.,293.4,73.76,73.76
"2022-09-25",00:43,8.187,8.117,8.03,8.01,5.613,7.993,95.3,-7.881,-8.332,295.5,339.4,-43.4,-2.023,-1.423,281.7,0,7478.,0.,100000,101.5349,0.2,0.2,1.301,1.55,340.128,0.403,0.59,128.003,0.599,12.067,14.19,14.667,-999,15.472,14.252,10.865,-999.,-999.,15.646,-4.708,-4.944,-9.644,-25.704,0.201,0.277,0.276,0.749,0.177,0.222,0.277,0.749,0.512,,100.,0.,0.,0.,293.4,73.76,73.76
"2022-09-25",00:44,8.167,8.108,7.972,7.937,5.276,7.907,95.5,-8.225,-8.428,295.2,339.,-43.6,-2.023,-1.174,281.7,0,6448.,0.,100000,101.541,0.2,0.2,1.259,1.64,337.469,0.501,0.62,134.4,0.599,12.085,14.19,14.674,-999,15.475,14.245,10.848,-999.,-999.,15.649,-4.729,-4.96,-9.682,-25.747,0.201,0.277,0.276,0.749,0.177,0.222,0.277,0.749,0.512,,100.,0.,0.,0.,293.4,73.76,73.76
"2022-09-25",00:45,8.111,8.095,7.917,7.927,5.184,7.9,96.2,-8.472,-8.492,295.2,338.4,-43.2,-2.023,-1.672,281.4,0,6285.,0.,100000,101.5387,0.2,0.2,1.296,1.56,332.,0.356,0.48,131.138,0.599,12.085,14.19,14.667,-999,15.475,14.242,10.839,-999.,-999.,15.646,-4.751,-4.978,-9.72,-25.785,0.201,0.277,0.276,0.748,0.177,0.222,0.277,0.749,0.511,,100.,0.,0.,0.,293.4,73.77,73.76
"2022-09-25",00:46,8.088,8.032,7.914,7.917,5.181,7.9,96.7,-8.612,-8.545,294.7,337.6,-43.0,-2.023,-1.174,281.5,0,5841.,0.,100000,101.5372,0.2,0.2,1.359,1.56,336.266,0.181,0.26,159.815,0.599,12.055,14.19,14.667,-999,15.475,14.242,10.829,-999.,-999.,15.649,-4.774,-4.996,-9.766,-25.826,0.201,0.277,0.275,0.749,0.177,0.222,0.277,0.749,0.511,,100.,0.,0.,0.,293.4,73.76,73.76
"2022-09-25",00:47,8.033,7.954,7.892,7.909,5.007,7.847,96.5,-8.569,-8.577,295.1,337.4,-42.3,-2.023,-1.36,281.1,0,6597.,0.,100000,101.5387,0.2,0.2,1.331,1.59,331.466,0.221,0.33,242.602,0.599,12.055,14.19,14.674,-999,15.479,14.242,10.816,-999.,-999.,15.643,-4.797,-5.012,-9.816,-25.863,0.201,0.277,0.275,0.749,0.177,0.222,0.277,0.749,0.511,,100.,0.,0.,0.,293.4,73.76,73.76
"2022-09-25",00:48,7.977,7.855,7.857,7.88,5.043,7.8,96.1,-8.472,-8.662,295.1,337.1,-41.8,-2.023,-1.173,281.3,0,5457.,0.,100000,101.5455,0.2,0.2,1.498,1.89,331.266,0.312,0.58,309.762,0.599,12.055,14.19,14.667,-999,15.479,14.242,10.799,-999.,-999.,15.643,-4.82,-5.029,-9.862,-25.9,0.201,0.277,0.276,0.749,0.177,0.222,0.277,0.75,0.511,,100.,0.,0.,0.,293.4,73.76,73.76
"2022-09-25",00:49,7.951,7.816,7.831,7.821,5.377,7.8,96.2,-8.343,-8.715,295.1,337.3,-41.8,-1.831,-1.235,281.5,0,7137.,0.,100000,101.5369,0.2,0.2,1.636,1.85,327.865,0.306,0.51,311.999,0.599,12.052,14.186,14.671,-999,15.472,14.235,10.789,-999.,-999.,15.646,-4.841,-5.047,-9.908,-25.937,0.201,0.277,0.276,0.749,0.177,0.222,0.277,0.75,0.511,,100.,0.,0.,0.,293.4,73.76,73.76
"2022-09-25",00:50,7.944,7.835,7.804,7.79,5.502,7.8,96.,-8.322,-8.768,295.4,337.1,-41.3,-1.734,-1.297,281.5,0,7999.,0.,100000,101.5396,0.2,0.2,1.767,1.98,330.133,0.265,0.39,308.298,0.599,12.042,14.193,14.671,-999,15.469,14.246,10.786,-999.,-999.,15.649,-4.863,-5.062,-9.947,-25.973,0.201,0.277,0.276,0.753,0.179,0.224,0.277,0.75,0.511,,100.,0.,0.,0.,293.4,73.75,73.76
"2022-09-25",00:51,7.882,7.799,7.766,7.774,5.737,7.72,96.,-8.322,-8.864,296.,337.1,-40.6,-1.734,-1.11,281.5,0,7999.,0.,100000,101.5402,0.2,0.2,1.706,1.93,330.272,0.375,0.65,318.941,0.599,12.023,14.17,14.674,-999,15.479,14.239,10.77,-999.,-999.,15.646,-4.884,-5.08,-9.987,-26.008,0.201,0.277,0.276,0.754,0.18,0.224,0.277,0.751,0.511,,100.,0.,0.,0.,293.4,73.76,73.76
"2022-09-25",00:52,7.855,7.773,7.737,7.743,5.593,7.7,96.,-8.343,-8.991,296.5,337.1,-40.0,-1.734,-1.484,281.6,0,7999.,0.,100000,101.5414,0.2,0.2,2.017,2.34,329.868,0.507,0.65,318.198,0.599,12.019,14.177,14.678,-999,15.459,14.239,10.757,-999.,-999.,15.646,-4.905,-5.096,-10.021,-26.044,0.201,0.277,0.276,0.749,0.178,0.222,0.277,0.75,0.511,,100.,0.,0.,0.,293.4,73.76,73.76
"2022-09-25",00:53,7.793,7.727,7.725,7.737,5.417,7.7,96.2,-8.408,-9.129,296.8,337.3,-39.8,-1.734,-1.359,281.6,0,7999.,0.,100000,101.547,0.2,0.2,2.106,2.42,329.867,0.726,0.89,323.866,0.599,11.987,14.177,14.664,-999,15.472,14.236,10.747,-999.,-999.,15.633,-4.927,-5.114,-10.056,-26.081,0.201,0.277,0.276,0.749,0.177,0.222,0.277,0.75,0.511,,100.,0.,0.,0.,293.4,73.76,73.76
"2022-09-25",00:54,7.757,7.711,7.709,7.701,5.4,7.667,96.3,-8.451,-9.278,297.3,338.,-39.9,-1.734,-1.359,281.6,0,7999.,0.,100000,101.5453,0.2,0.2,2.203,2.41,330.8,1.091,1.36,320.265,0.599,11.98,14.167,14.685,-999,15.466,14.23,10.724,-999.,-999.,15.646,-4.949,-5.129,-10.087,-26.121,0.201,0.277,0.276,0.749,0.177,0.222,0.277,0.75,0.511,,100.,0.,0.,0.,293.4,73.76,73.76
"2022-09-25",00:55,7.714,7.668,7.66,7.653,5.616,7.6,96.4,-8.408,-9.459,297.6,339.4,-40.7,-1.734,-1.234,281.8,0,7999.,0.,100000,101.5468,0.2,0.2,2.451,2.75,331.466,1.172,1.31,320.467,0.599,11.977,14.167,14.678,-999,15.463,14.23,10.721,-999.,-999.,15.647,-4.969,-5.147,-10.118,-26.157,0.201,0.277,0.276,0.749,0.177,0.222,0.277,0.75,0.511,,100.,0.,0.,0.,293.4,73.75,73.76
"2022-09-25",00:56,7.691,7.635,7.68,7.653,5.786,7.6,96.8,-8.344,-9.544,297.3,340.4,-41.9,-1.734,-1.919,281.9,0,7999.,0.,100000,101.5454,0.2,0.2,2.399,2.82,332.533,1.319,1.51,317.202,0.599,11.98,14.161,14.672,-999,15.466,14.223,10.732,-999.,-999.,15.647,-4.99,-5.163,-10.151,-26.196,0.201,0.277,0.276,0.749,0.176,0.222,0.277,0.749,0.511,,100.,0.,0.,0.,293.4,73.76,73.76
"2022-09-25",00:57,7.685,7.675,7.714,7.69,6.016,7.6,97.3,-8.236,-9.523,297.6,341.2,-42.3,-1.734,-1.545,281.8,0,7999.,0.,100000,101.5482,0.2,0.2,2.329,2.86,332.465,1.317,1.53,318.13,0.599,11.967,14.154,14.675,-999,15.459,14.23,10.715,-999.,-999.,15.634,-5.011,-5.18,-10.18,-26.235,0.201,0.278,0.276,0.749,0.177,0.221,0.277,0.749,0.511,,100.,0.,0.,0.,293.4,73.76,73.76
"2022-09-25",00:58,7.718,7.668,7.712,7.671,6.081,7.6,97.6,-8.118,-9.48,297.3,341.8,-43.1,-1.734,-1.67,282.,0,7999.,0.,100000,101.5435,0.2,0.2,2.254,2.54,328.333,1.225,1.55,318.604,0.599,11.941,14.155,14.668,-999,15.459,14.227,10.703,-999.,-999.,15.634,-5.031,-5.197,-10.209,-26.272,0.201,0.278,0.276,0.748,0.176,0.222,0.277,0.749,0.511,,100.,0.,0.,0.,293.4,73.76,73.76
"2022-09-25",00:59,7.738,7.717,7.735,7.717,6.209,7.6,98.,-8.01,-9.374,297.3,342.4,-43.7,-1.734,-1.919,281.8,0,7999.,0.,100000,101.5415,0.2,0.2,2.364,2.91,330.4,1.215,1.39,315.534,0.599,11.918,14.148,14.659,-999,15.459,14.223,10.699,-999.,-999.,15.631,-5.05,-5.213,-10.238,-26.312,0.201,0.277,0.276,0.749,0.176,0.221,0.277,0.75,0.511,,100.,0.,0.,0.,293.4,73.76,73.76
"2022-09-25",01:00,7.744,7.714,7.747,7.726,6.219,7.6,98.,-7.903,-9.236,297.1,342.8,-44.4,-1.734,-1.67,281.8,0,7999.,0.,100000,101.5427,0.2,0.2,2.152,2.52,329.932,1.284,1.39,315.866,0.599,11.904,14.145,14.652,-999,15.463,14.223,10.687,-999.,-999.,15.634,-5.073,-5.23,-10.268,-26.353,0.201,0.277,0.276,0.749,0.177,0.222,0.277,0.75,0.511,,100.,0.,0.,0.,293.4,73.76,73.76
"2022-09-25",01:01,7.784,7.717,7.766,7.736,6.186,7.6,98.,-7.817,-9.13,297.2,343.1,-44.6,-1.734,-1.172,282.,0,7999.,0.,100000,101.5417,0.2,0.2,2.137,2.44,329.867,1.176,1.29,317.466,0.599,11.898,14.148,14.659,-999,15.459,14.223,10.69,-999.,-999.,15.634,-5.091,-5.244,-10.296,-26.392,0.201,0.277,0.276,0.749,0.176,0.222,0.277,0.75,0.511,,100.,0.,0.,0.,293.4,73.76,73.76
"2022-09-25",01:02,7.731,7.701,7.741,7.705,6.068,7.6,97.9,-7.774,-9.013,297.,342.6,-44.4,-1.734,-1.794,281.9,0,7999.,0.,100000,101.5454,0.2,0.2,2.287,2.64,327.067,1.299,1.5,318.001,0.599,11.898,14.138,14.652,-999,15.466,14.223,10.687,-999.,-999.,15.627,-5.11,-5.261,-10.323,-26.433,0.201,0.278,0.276,0.748,0.176,0.222,0.277,0.749,0.511,,100.,0.,0.,0.,293.4,73.75,73.76
"2022-09-25",01:03,7.735,7.658,7.729,7.686,5.967,7.6,97.9,-7.753,-8.971,297.2,342.6,-44.2,-1.734,-1.545,281.8,0,7999.,0.,100000,101.5426,0.2,0.2,2.335,2.51,325.933,1.34,1.55,321.867,0.599,11.898,14.135,14.652,-999,15.47,14.223,10.687,-999.,-999.,15.621,-5.131,-5.278,-10.351,-26.474,0.201,0.278,0.276,0.748,0.177,0.222,0.277,0.75,0.511,,100.,0.,0.,0.,293.4,73.76,73.76
"2022-09-25",01:04,7.738,7.695,7.756,7.712,5.928,7.6,98.1,-7.742,-8.928,297.2,342.4,-44.0,-1.734,-1.732,281.9,0,7999.,0.,100000,101.5434,0.2,0.2,2.263,2.75,326.133,1.283,1.5,318.201,0.599,11.905,14.132,14.649,-999,15.484,14.223,10.674,-999.,-999.,15.627,-5.151,-5.293,-10.381,-26.514,0.201,0.278,0.276,0.748,0.176,0.221,0.277,0.749,0.511,,100.,0.,0.,0.,293.4,73.76,73.76
"2022-09-25",01:05,7.735,7.639,7.723,7.667,5.97,7.6,98.1,-7.72,-8.928,297.1,342.5,-44.2,-1.734,-1.669,281.9,0,7999.,0.,100000,101.5418,0.2,0.2,2.337,2.51,324.133,1.244,1.54,318.067,0.599,11.885,14.132,14.649,-999,15.484,14.223,10.644,-999.,-999.,15.627,-5.17,-5.308,-10.409,-26.552,0.201,0.278,0.276,0.749,0.177,0.222,0.277,0.75,0.51,,100.,0.,0.,0.,293.4,73.76,73.76